Regional Weather Roundup
Issued by NWS

Home | Current Version | Previous Version | Text Only | Print | Product List | Glossary Off
Versions: 1 2 3 4 5 6 7 8 9 10 11 12 13 14 15 16 17 18 19 20 21 22 23 24 25 26 27 28 29 30 31 32 33 34 35 36 37 38 39 40 41 42 43 44 45 46 47 48 49 50

000
ASUS45 KTFX 152310
RWRMT
MONTANA REGIONAL WEATHER ROUNDUP
NATIONAL WEATHER SERVICE GREAT FALLS MT
400 PM MST MON JAN 15 2018

NOTE: "FAIR" INDICATES FEW OR NO CLOUDS BELOW 12000 FEET WITH NO
SIGNIFICANT WEATHER AND/OR OBSTRUCTIONS TO VISIBILITY.

MTZ001>007-043-160000-
WEST OF THE DIVIDE

CITY           SKY/WX    TMP DP  RH WIND       PRES   REMARKS
KALISPELL      FAIR      37  29  72 N5        30.37R
MISSOULA       FAIR      39  26  59 E20G29    30.34F WCI  29
BUTTE          FAIR      28  21  75 S14       30.37S WCI  17
MULLAN PASS    FAIR      29  28  96 SE10G23   30.22S WCI  20
ANACONDA         N/A     34  27  75 SE9       30.36F WCI  26
DEER LODGE       N/A     34  27  75 S8        30.38S WCI  27
EUREKA           N/A     30  27  86 MISG      30.41S
HAMILTON         N/A     43  30  61 CALM      30.33S
PLAINS           N/A     37  31  79 E3        30.34F
RONAN            N/A     32  30  93 N5        30.38S
$$

MTZ008-052>055-160000-
SOUTHWEST MONTANA

CITY           SKY/WX    TMP DP  RH WIND       PRES   REMARKS
BOZEMAN        FAIR      31  22  69 CALM      30.44F
DILLON         CLOUDY    31  24  75 CALM      30.39S
ENNIS          CLOUDY    30  23  74 VRB5      30.44F
W YELLOWSTONE  FAIR      30   9  40 CALM      30.35F
THREE FORKS      N/A     33  26  76 SE1       30.38F
TWIN BRIDGES     N/A     32  22  67 MISG      30.34S
$$

MTZ009-010-012-014-046-048-049-054-160000-
EAST SLOPES AND CENTRAL MONTANA

CITY           SKY/WX    TMP DP  RH WIND       PRES   REMARKS
CUT BANK       CLOUDY    16  12  84 SE15      30.40F WCI   1
GREAT FALLS    FAIR      14   9  80 E10       30.44F WCI   1
MALMSTROM AFB  FLURRIES   7   5  94 NE9       30.46F WCI  -7
HELENA         FAIR      31  23  72 CALM      30.43F
AUGUSTA        CLOUDY    23  24 100 SE12      30.37F WCI  11
BOWMANS CRNR   FAIR      27  22  80 S13       30.36F WCI  17
CHOTEAU          N/A     23  21  93 SE9       30.42F WCI  13
CONRAD           N/A      7   3  83 N7        30.42  WCI  -4
FAIRFIELD      FAIR      21  17  81 E9        30.40F WCI  11
POWER          FAIR      10   8  89 SE7       30.42F WCI  -1
RAYNESFORD     FAIR      20  17  88 SE20      30.43F WCI   4
ULM            FAIR      27  21  79 E6        30.42F WCI  20
WHITE SULPHUR    N/A     16  12  86 N7        30.43S WCI   6
$$

MTZ011-013-016-021-045-047-050-051-160000-
NORTH CENTRAL MONTANA

CITY           SKY/WX    TMP DP  RH WIND       PRES   REMARKS
HAVRE          FAIR     -15 -18  86 CALM      30.62F
LEWISTOWN      FAIR      15   7  70 E13       30.47F WCI   1
N BAR RANCH    FAIR      10   3  72 CALM      30.49F
CHINOOK          N/A     -9 -17  70 E8        30.66S WCI -26
DENTON         FAIR       4   1  88 MISG      30.47F
GRASS RANGE    FAIR       9   1  69 CALM      30.49S
STANFORD       FAIR      12  11  94 CALM      30.43F
WINIFRED       FAIR      -5  -9  84 E8        30.50F WCI -21
$$

MTZ017>020-022>027-061-062-160000-
NORTHEAST MONTANA

CITY           SKY/WX    TMP DP  RH WIND       PRES   REMARKS
GLASGOW        FAIR     N/A N/A N/A E12       30.76S
GLENDIVE       FAIR      -9 -17  68 S7        30.79  WCI -24
MALTA          CLEAR     -9 -15  77 E9        30.74F WCI -27
SIDNEY         FAIR      -2 -13  59 CALM      30.85S
WOLF POINT     FAIR      -6 -17  59 NE6       30.83F WCI -19
PLENTYWOOD       N/A     -4 -15  59 CALM      30.79R
POPLAR           N/A     -6 -17  59 CALM      30.84S
SCOBEY           N/A     -8 -20  56 CALM      30.68F
$$

MTZ028>42-056>058-160000-
SOUTHCENTRAL AND SOUTHEAST MONTANA

CITY           SKY/WX    TMP DP  RH WIND       PRES   REMARKS
BAKER          FAIR      -9 -14  78 CALM      30.73R
BILLINGS       FAIR       6  -4  63 N3        30.59S
LIVINGSTON     CLOUDY    21  18  88 SE7       30.48S WCI  12
MILES CITY     FAIR      -8 -12  83 S9        30.76S WCI -25
BIG TIMBER     CLOUDY    18  14  86 CALM      30.53S
EKALAKA          N/A     -9 -19  61 CALM      30.56S
FORSYTH          N/A    -11 -17  77 E7        30.72S WCI -26
HARLOWTON      CLOUDY    13  11  91 E7        30.52S WCI   2
LAUREL           N/A      7  -2  66 NE6       30.62R WCI  -3
$$

REGIONAL REPORTS...DAKOTAS

CITY           SKY/WX    TMP DP  RH WIND       PRES   REMARKS
WILLISTON      FAIR      -7 -16  65 W6        30.85S WCI -20
MINOT          FAIR      -6 -15  65 W9        30.84R WCI -23
DICKINSON      FAIR      -6 -15  65 W7        30.73R WCI -20
BEACH          FAIR      -8 -17  65 CALM      30.77S
CROSBY         FAIR      -6 -15  65 W5        30.83S
TIOGA          FAIR      -9 -15  77 W7        30.80S WCI -24
WATFORD CITY   FAIR      -8 -17  65 W6        30.83S WCI -21
BISMARCK       FAIR      -5 -15  62 NW15      30.83R WCI -26
GRAND FORKS    BLWGSNOW  -8 -13  78 N24G33    30.79R VSB 3/4 WCI -34
FARGO          MIX PCPN  -9 -14  78 N23       30.76R WCI -35
BUFFALO SD       N/A     -5 -13  68 NW13      30.62F WCI -24
RAPID CITY     FAIR       2  -7  66 N16       30.67R WCI -18
$$

REGIONAL REPORTS...WYOMING/IDAHO/WASHINGTON

CITY           SKY/WX    TMP DP  RH WIND       PRES   REMARKS
GILLETTE       FAIR       0  -6  76 CALM      30.57F
SHERIDAN       FAIR       3  -3  76 NW6       30.59F WCI  -8
BUFFALO WY     FAIR       9   0  67 SE5       30.52S
CODY           FAIR      24  16  71 NE3       30.49S
YELLOWSTONE LA   N/A     23  15  71 CALM      30.36S
IDAHO FALLS    FAIR      40  24  53 NE10      30.34S
SALMON         CLOUDY    32  26  78 S5        30.41S
BOISE          FAIR      46  33  60 E3        30.26F
SPOKANE        FAIR      42  34  73 NE7       30.19F
$$

REGIONAL REPORTS...ALBERTA

CITY           SKY/WX    TMP DP  RH WIND       PRES   REMARKS
CALGARY        MOCLDY    19  16  86 S16       30.23F HAZE    WCI   5
CARDSTON         N/A     25  19  80 MISG        N/A
EDMONTON       CLEAR     19  10  68 SE12G20   30.28F WCI   7
FORT MCMURRAY  CLEAR     14   0  52 E8        30.31F WCI   3
HIGH LEVEL     CLEAR     10   5  79 VRB2      30.08F
LETHBRIDGE     MOCLDY    21  16  79 S10       30.34F WCI  10
LLOYDMINSTER   PTCLDY     3  -9  55 SE13      30.49S WCI -14
MEDICINE HAT   PTCLDY    -2  -6  84 NE3       30.51F
MILK RIVER       N/A      7   1  78 S22         N/A  WCI -14
ONEFOUR          N/A     -9 -17  70 E14         N/A  WCI -31
PEACE RIVER    PTCLDY    16  10  79 SW5       30.10F
PINCHER CREEK  FOG       19  19 100 NE2       30.27F VSB 1/8
WATERTON GATE    N/A     30  21  69 NE3         N/A
$$

REGIONAL REPORTS...SASKATCHEWAN

CITY           SKY/WX    TMP DP  RH WIND       PRES   REMARKS
CORONACH         N/A     -8 -15  71 SE7         N/A  WCI -22
CYPRESS HILLS    N/A      0 -15  50 S13         N/A  WCI -18
ESTEVAN        PTCLDY    -8 -17  65 W5        30.82R
MOOSE JAW        N/A     -2 -11  65 S7          N/A  WCI -16
PRINCE ALBERT  MOCLDY    -6 -15  65 S6        30.75F WCI -18
REGINA         PTCLDY    -4 -13  65 SE10      30.77F WCI -21
ROCKGLEN         N/A     -8 -17  65 SW12        N/A  WCI -27
SASKATOON      PTCLDY     0 -11  60 S8        30.71F WCI -15
SWIFT CURRENT  CLEAR      0 -11  60 S21G26    30.56F WCI -23
VAL MARIE        N/A     -9 -17  70 SW2         N/A
$$



USA.gov is the U.S. government's official web portal to all federal, state and local government web resources and services.